Location: Kershaw
(34.5481°N, 80.5823°W)
Time: 10:24:26
(UTC+00:00)

Tiros 1 despin weight - Pass Details

Date: 11 October 2022
Orbit: 590 x 637 km, 48.2° (Epoch: 02 December)

Event Time Altitude Azimuth Distance (km) Brightness Sun altitude
Rises 23:45:25 0° 309° (NW) 2,866 ? -11.6°
Reaches altitude 10° 23:47:43 10° 313° (NW) 1,968 ? -12.1°
Maximum altitude 23:52:13 62° 35° (NE) 694 ? -13.0°
Enters shadow 23:55:23 19° 112° (ESE) 1,476 ? -13.7°
